Preview of NWS' New Version of Forecast
This preview is not operational and should not be used for support decisions.

Regional Weather Roundup (RWR)

Issued by National Weather Service (NWS)

                            
000
ASUS43 KDMX 180606
RWRIA 

WEATHER ROUNDUP FOR IOWA
NATIONAL WEATHER SERVICE DES MOINES IA
100 AM CDT WED SEP 18 2019

NOTE: "FAIR" INDICATES FEW OR NO CLOUDS BELOW 12,000 FEET WITH NO
SIGNIFICANT WEATHER AND/OR OBSTRUCTIONS TO VISIBILITY.

* - THESE STATIONS ARE NOT NWS STATIONS...THUS NOT UNDER NWS
QUALITY CONTROL.  THEY ALSO DO NOT REPORT WEATHER SUCH 
AS PRECIPITATION OR FOG.  

IAZ001>003-012>014-020>022-031>034-043>046-180700-
   NORTHWEST IOWA
  
CITY           SKY/WX    TMP DP  RH WIND       PRES   REMARKS
CARROLL *      PTCLDY    73  68  83 S8        29.93S                  
CHEROKEE *     CLEAR     74  70  85 S12G17    29.88F                  
DENISON *      PTCLDY    75  72  88 S13G20    29.93S                  
LE MARS *      PTCLDY    79  70  73 S18G28    29.83S HX  81           
SHELDON *        N/A     75  70  83 S16       29.83F                  
SIOUX CITY     CLEAR     76  68  76 SE13      29.85F                  
6HR MIN TEMP:  75; 6HR MAX TEMP:  83;                                

SPENCER        MOCLDY    76  68  76 S17G28    29.88F                  
6HR MIN TEMP:  76; 6HR MAX TEMP:  83; 6HR PCP: TRACE;                

STORM LAKE *   PTCLDY    72  70  94 S18G25    29.88F                  
$$
 
IAZ055>058-069>071-079>083-090>094-180700-
   SOUTHWEST IOWA
  
CITY           SKY/WX    TMP DP  RH WIND       PRES   REMARKS
ATLANTIC *     CLEAR     75  70  83 S8        29.94R                  
AUDUBON *        N/A     72  66  83 S7        29.96R                  
CLARINDA *     CLEAR     73  70  88 VRB3      29.97S                  
COUNCIL BLFS * CLEAR     75  72  88 S15       29.90F                  
CRESTON *      CLEAR     72  68  88 SE8       29.98S                  
HARLAN  *      CLEAR     75  70  83 S12       29.93S                  
LAMONI         CLEAR     74  68  81 SE7       29.99S                  
6HR MIN TEMP:  74; 6HR MAX TEMP:  83;                                

RED OAK *      PTCLDY    73  68  83 S7        29.95R HAZE             
SHENANDOAH *   CLEAR     73  68  83 SE6       29.93S                  
$$
 
IAZ047>049-059>061-072>074-084-180700-
   CENTRAL IOWA
  
CITY           SKY/WX    TMP DP  RH WIND       PRES   REMARKS
AMES           CLEAR     74  72  93 SE9       29.98R                  
6HR MIN TEMP:  73; 6HR MAX TEMP:  83;                                

ANKENY *       CLEAR     75  72  88 S9        29.98S                  
BOONE *        CLEAR     73  73 100 SE8       29.97S                  
CHARITON *     CLEAR     73  73 100 SE9       29.99S                  
DES MOINES     MOCLDY    75  71  87 SE10      29.97R                  
6HR MIN TEMP:  75; 6HR MAX TEMP:  84;                                

GRINNELL*      CLEAR     71  67  86 SE12      30.03S                  
KNOXVILLE *      N/A     73  72  94 SE9       30.00R                  
MARSHALLTOWN   CLEAR     69  68  96 SE10      30.00R                  
6HR MIN TEMP:  69; 6HR MAX TEMP:  78;                                

NEWTON *       CLEAR     72  70  94 SE9       30.00R                  
PELLA *        CLEAR     73  67  83 SE7       30.01S                  
PERRY *        FAIR      71  69  92 SE6       29.96S                  
$$
 
IAZ004>006-015-016-023>025-035-036-180700-
   NORTH CENTRAL IOWA
  
CITY           SKY/WX    TMP DP  RH WIND       PRES   REMARKS
ALGONA *       CLEAR     75  75 100 SE16G23   29.92F                  
CLARION *      CLEAR     72  72 100 SE13      29.97S                  
ESTHERVILLE    CLEAR     73  69  87 S15       29.89F                  
6HR MIN TEMP:  72; 6HR MAX TEMP:  80;                                

FORT DODGE *   CLEAR     76  72  87 S10       29.95F                  
MASON CITY     CLEAR     70  64  81 SE14      29.99S                  
6HR MIN TEMP:  70; 6HR MAX TEMP:  80;                                

FOREST CITY *  FAIR      70  68  94 SE14      29.97S                  
IOWA FALLS *     N/A     71  64  81 SE9       30.01R                  
$$

IAZ007>011-017>019-026>030-037>042-050>054-066-180700-
   NORTHEAST IOWA
  
CITY           SKY/WX    TMP DP  RH WIND       PRES   REMARKS
CEDAR RAPIDS   FAIR      69  67  93 SE9       30.04R                  
6HR MIN TEMP:  68; 6HR MAX TEMP:  75;                                

CHARLES CITY * FAIR      70  68  94 SE10G17   30.01S                  
CLINTON *      FAIR      68  65  90 SE10      30.09R                  
DECORAH *      FAIR      68  66  94 SE8G14    30.02S                  
DUBUQUE        FAIR      68  65  90 SE13      30.07F                  
6HR MIN TEMP:  67; 6HR MAX TEMP:  71;                                

MONTICELLO *   FAIR      68  68 100 SE8       30.06S                  
OELWEIN *      CLEAR     68  68 100 SE10      30.04S                  
WATERLOO       FAIR      73  67  81 SE14      30.00S                  
6HR MIN TEMP:  73; 6HR MAX TEMP:  79;                                

$$
 
IAZ064-065-067-068-078-180700-
   EAST CENTRAL IOWA
  
CITY           SKY/WX    TMP DP  RH WIND       PRES   REMARKS
DAVENPORT      FAIR      69  65  86 SE10      30.09R                  
6HR MIN TEMP:  69; 6HR MAX TEMP:  75;                                

IOWA CITY      FAIR      70  66  87 SE6       30.06R                  
6HR MIN TEMP:  70; 6HR MAX TEMP:  78;                                

MUSCATINE *    FAIR      70  68  94 SE3       30.06R                  
QUAD CITIES    FAIR      67  64  90 E7        30.07R                  
6HR MIN TEMP:  67; 6HR MAX TEMP:  75;                                

$$
 
IAZ062-063-075>077-085>089-095>099-180700-
   SOUTHEAST IOWA
  
CITY           SKY/WX    TMP DP  RH WIND       PRES   REMARKS
BURLINGTON     CLEAR     72  65  78 SE7       30.05S                  
6HR MIN TEMP:  72; 6HR MAX TEMP:  78;                                

FAIRFIELD *    PTCLDY    72  70  94 SE8       30.03S                  
FORT MADISON * CLEAR     73  68  83 SE8       30.05S                  
KEOKUK *       CLEAR     72  70  94 SE6       30.04S                  
OSKALOOSA *    FAIR      70  66  87 SE6       30.02S                  
CENTERVILLE *  FAIR      72  72 100 SE9       30.03S                  
OTTUMWA        CLEAR     73  67  81 SE9       30.02R                  
6HR MIN TEMP:  73; 6HR MAX TEMP:  81;                                

WASHINGTON *     N/A    N/A N/A N/A MISG        N/A                   
$$

ABBREVIATIONS USED IN REMARKS
   TC - TEMPERATURES IN CELSIUS
  WCI - WIND CHILL INDEX
   HX - HEAT INDEX
  VSB - VISIBILITY  
$$